Theta_e
316 316 315 315 315 315 314 314 314 315 315 314 314 314 314 313 314 314 314 314 314 313 311 311 311 312 304 293 292 301 303 302 300 298 294 293 291 290 288 288 288 287 287 288 289 289 289
318 318 318 317 316 316 315 315 315 315 315 314 314 314 313 313 313 314 314 314 313 313 312 311 311 310 298 289 299 299 299 299 298 298 295 294 291 292 289 287 287 288 288 287 288 288 288
319 319 320 320 319 317 317 316 315 315 315 314 314 314 313 313 313 313 313 313 311 311 312 310 311 300 293 292 299 300 299 297 298 297 295 296 295 291 290 287 289 287 284 286 286 286 285
321 321 320 320 321 319 318 317 317 316 315 315 314 314 313 313 313 313 313 311 311 311 310 309 309 298 291 298 300 298 298 297 299 299 298 298 297 293 290 289 286 284 284 282 286 285 285
322 322 322 321 320 321 320 319 318 317 316 315 315 315 314 313 313 313 313 308 310 310 308 306 300 296 289 301 294 296 298 295 296 297 298 297 295 289 289 286 285 284 281 282 282 284 284
320 321 322 323 322 321 321 320 319 318 317 316 315 315 314 313 313 312 308 305 305 305 302 296 294 291 291 290 294 295 297 296 293 294 292 292 290 287 288 287 281 280 280 281 281 284 283
319 319 321 320 323 322 321 320 320 319 318 316 316 315 314 313 312 308 301 299 295 294 294 291 289 289 290 293 296 293 295 293 292 290 286 288 286 284 283 284 283 282 280 280 283 284 280
317 317 318 320 321 322 321 321 320 319 319 317 316 315 313 312 310 304 300 295 293 294 288 291 290 291 292 293 289 291 295 289 288 285 286 285 283 284 285 284 282 282 281 281 282 283 281
316 316 316 317 317 317 317 318 320 320 319 317 315 314 313 311 305 300 295 294 298 298 289 288 290 289 290 292 288 289 291 288 286 284 284 283 283 285 283 282 281 282 280 280 277 280 280
315 316 315 315 315 315 315 315 315 316 317 316 316 314 311 309 302 298 293 297 300 299 288 285 286 289 291 291 287 291 291 289 285 283 283 284 285 283 282 281 280 278 282 279 277 275 275
314 315 314 314 314 314 315 315 315 315 314 316 316 313 308 304 299 296 295 299 300 296 283 285 285 293 290 287 287 288 291 288 284 284 283 283 282 281 280 281 281 281 281 278 276 274 273
311 312 313 313 313 312 312 313 313 313 314 313 315 313 307 302 300 298 300 300 297 289 283 282 285 284 285 286 286 287 287 289 287 283 283 283 284 283 282 282 281 281 279 277 274 275 270
310 310 310 310 311 311 312 311 311 311 312 313 315 311 304 301 296 299 299 295 287 284 286 284 281 284 283 283 283 284 283 282 282 282 281 280 280 282 282 280 281 280 278 277 275 273 274
308 309 308 308 309 310 310 311 310 310 311 311 313 306 300 299 299 299 297 292 284 287 286 283 283 283 281 282 282 282 281 281 281 280 280 280 281 279 280 279 276 276 275 274 269 272 272
307 307 307 307 307 308 308 308 309 310 311 312 306 302 299 298 300 299 295 285 287 287 282 281 282 281 283 281 281 281 281 281 282 281 282 279 280 280 279 279 279 276 275 275 270 268 267
304 304 304 305 305 306 306 307 309 311 312 310 302 298 293 297 298 297 288 287 287 284 284 285 283 283 283 281 280 279 280 282 281 281 281 278 279 279 278 280 279 278 279 273 272 268 270
302 302 302 302 303 304 304 305 307 309 310 307 301 291 294 296 297 291 285 285 283 284 285 285 283 283 282 282 280 280 281 281 282 280 281 278 277 277 278 276 277 276 275 273 273 272 270
300 300 300 300 301 302 302 304 305 306 308 303 298 286 295 295 287 285 284 284 284 282 284 284 283 283 282 281 282 279 280 281 284 283 279 280 278 278 276 273 275 276 275 275 273 270 271
299 299 299 299 300 300 301 302 304 305 307 300 289 287 296 296 284 284 284 282 282 281 282 284 282 283 280 281 278 278 281 282 283 282 280 280 279 279 277 274 276 274 274 273 272 271 270
297 298 298 298 298 299 299 302 304 305 309 301 293 285 286 288 287 285 283 284 283 284 283 285 283 282 279 280 278 277 279 281 283 283 284 283 277 277 280 279 274 272 272 273 273 271 272
298 297 298 298 297 298 298 300 303 306 308 302 293 286 287 285 285 284 284 285 282 282 283 284 282 281 282 279 276 275 279 280 282 285 282 280 275 271 273 268 268 271 271 272 270 271 273
299 298 297 297 297 297 298 300 302 305 306 297 291 289 287 286 285 283 284 284 284 285 284 281 281 282 282 278 280 279 279 280 280 282 280 278 276 271 271 265 265 269 272 271 271 270 267
298 298 297 297 297 297 297 298 300 302 305 295 292 293 292 287 285 283 284 285 286 286 286 284 283 281 279 281 282 282 282 281 282 281 279 277 276 273 277 269 270 273 271 269 271 270 273
297 297 298 297 297 297 297 297 298 300 302 299 295 294 290 285 286 285 286 286 286 285 285 283 284 283 282 283 283 282 280 280 280 279 280 274 273 273 275 272 276 280 266 270 274 273 271
298 297 297 297 296 297 296 297 297 298 301 298 297 294 290 285 288 287 286 286 285 284 285 283 283 284 284 282 280 277 276 276 273 276 277 277 277 274 273 273 280 276 271 272 275 284 275
299 299 298 297 297 297 296 296 296 297 299 299 299 298 294 287 287 289 286 285 283 282 281 282 283 285 285 281 278 276 276 276 272 273 279 278 276 275 272 275 276 285 276 274 275 283 274
302 300 299 298 297 297 296 296 295 296 297 298 298 298 294 287 290 287 287 285 285 283 283 281 281 280 283 279 276 276 278 271 275 271 271 273 274 272 271 274 279 281 277 277 279 287 274
300 301 300 299 298 297 296 296 295 295 295 297 295 297 294 287 288 289 290 286 284 285 282 281 281 279 279 277 277 279 275 275 273 275 273 273 271 271 272 271 276 277 276 280 287 274 276
298 299 300 300 298 297 297 296 296 294 294 295 292 296 295 288 287 288 290 290 289 290 286 282 283 281 282 280 279 277 275 274 274 279 275 274 278 277 277 281 282 279 284 281 276 280 275
Wind_Speed
0 2 3 4 4 5 5 6 7 8 9 9 10 11 12 13 13 12 12 11 9 7 6 5 1 2 2 2 2 3 6 5 6 4 4 2 2 2 4 3 2 3 0 4 7 11 10
2 3 3 3 4 4 5 5 6 8 8 10 11 11 12 14 14 14 14 11 9 7 6 4 3 2 3 3 3 4 3 2 6 4 5 3 2 1 5 2 1 0 8 11 8 6 4
4 4 5 5 5 5 5 6 6 7 8 9 10 12 13 14 15 15 15 14 10 5 4 4 2 2 1 3 3 4 3 2 2 2 3 2 1 3 3 3 2 2 6 7 2 2 3
5 6 6 7 6 6 6 6 6 7 7 8 9 10 12 14 15 16 16 14 7 3 4 2 1 1 2 1 3 4 1 2 2 3 3 2 2 4 2 2 2 3 2 8 4 4 1
6 7 8 8 7 7 7 7 7 6 7 8 8 9 11 14 15 17 15 10 3 4 3 1 2 2 2 3 3 3 2 1 2 2 3 3 1 2 2 2 2 3 10 14 10 2 5
9 8 8 10 9 8 8 8 8 7 7 8 9 9 11 13 14 16 14 2 3 4 3 2 1 2 2 3 3 3 2 2 1 3 2 1 1 3 1 5 5 8 10 10 16 6 10
12 13 11 8 9 8 9 8 8 8 8 8 9 10 12 13 15 13 5 2 2 2 0 2 1 1 4 2 1 3 1 3 2 2 3 2 5 4 0 1 1 6 10 20 17 11 10
12 11 14 11 6 7 8 9 8 9 8 7 7 10 13 14 13 9 2 4 2 2 5 1 1 2 1 2 3 2 1 4 3 4 2 4 6 4 1 2 5 7 16 13 9 9 14
11 13 13 14 14 13 13 10 7 9 8 8 7 7 10 14 3 5 4 2 1 2 4 1 2 2 1 3 2 2 1 2 2 4 4 5 3 3 1 3 5 7 10 9 18 22 10
10 10 10 11 11 11 11 10 10 11 9 9 8 6 7 14 0 1 3 2 2 1 3 3 2 1 1 2 2 1 2 0 2 3 2 6 3 2 5 2 2 6 3 13 17 8 5
8 7 8 10 11 10 11 12 12 10 12 11 9 6 2 7 1 2 3 2 1 3 5 3 2 1 1 2 2 2 1 2 3 3 3 2 2 2 3 2 1 7 14 13 4 5 6
10 9 8 8 8 9 10 12 13 13 12 13 9 7 4 2 2 2 2 1 1 1 7 2 2 2 1 1 1 1 2 3 2 2 3 3 0 2 2 2 2 11 6 3 1 3 5
10 11 12 12 10 10 8 12 16 16 14 14 6 8 2 1 2 2 1 1 2 4 1 0 1 1 1 1 1 0 0 2 3 2 2 2 2 2 2 4 3 9 8 4 3 3 4
12 12 12 12 12 11 14 14 15 17 15 14 10 11 7 4 4 4 1 3 5 1 2 0 1 1 3 1 2 1 1 4 3 2 1 2 3 2 2 3 2 7 4 3 8 6 8
10 11 13 14 15 15 14 16 16 19 17 5 12 3 3 4 5 3 3 2 4 2 1 1 2 1 3 2 2 3 4 3 3 5 3 2 3 3 3 2 3 5 2 2 5 2 5
12 10 13 14 14 15 16 18 21 22 13 18 3 3 3 7 5 3 2 6 3 1 1 3 3 1 3 3 3 2 5 3 5 1 2 3 4 1 3 2 5 3 7 2 3 6 8
10 12 12 14 15 15 14 18 20 16 16 7 3 3 2 4 2 3 3 4 1 2 3 3 3 2 6 3 3 3 3 3 3 5 3 4 2 3 2 4 3 4 4 3 2 3 5
10 10 11 11 12 14 16 18 18 19 20 3 2 1 3 3 1 0 2 1 2 1 2 4 3 0 3 2 2 4 3 1 6 7 4 4 1 4 0 1 2 1 3 3 3 3 4
6 8 10 10 11 12 14 16 19 19 18 1 2 2 1 2 1 2 1 2 4 3 5 2 4 4 1 3 3 3 2 2 6 5 3 6 3 4 3 3 2 5 5 4 4 2 6
3 6 7 8 10 10 12 15 19 23 11 3 2 2 1 2 1 1 2 3 2 3 5 3 2 3 1 3 3 3 2 3 4 2 4 5 3 5 4 2 2 4 6 9 5 4 2
4 5 7 9 9 11 12 13 17 20 6 0 1 1 0 1 2 3 1 2 2 3 4 3 3 8 5 4 2 5 3 3 3 6 3 2 4 2 5 2 3 4 5 11 12 4 7
8 6 5 6 8 10 12 13 16 20 12 2 1 2 0 2 2 4 5 3 3 2 4 4 6 3 7 5 2 2 5 5 4 7 5 3 2 1 4 1 3 7 9 11 14 5 13
7 8 6 6 7 8 11 14 14 18 11 2 0 1 0 4 3 2 2 3 2 1 4 2 5 3 6 6 7 3 1 2 2 6 9 5 3 2 4 1 5 7 7 13 6 7 6
8 7 8 6 7 6 9 12 13 14 14 2 1 1 1 2 3 4 3 4 4 5 4 1 3 3 1 1 1 3 6 6 4 5 3 5 3 1 5 3 3 1 2 3 6 6 15
11 9 8 8 8 6 6 9 12 12 12 1 0 1 2 2 2 3 3 4 2 1 3 3 4 1 2 1 2 2 1 1 2 1 3 1 3 1 3 3 7 3 6 8 8 5 14
16 14 13 10 9 7 6 6 9 11 10 2 1 1 2 0 4 0 2 2 2 2 1 1 2 3 2 1 2 3 3 0 2 3 3 5 4 1 2 3 4 2 3 5 2 4 10
18 17 15 13 11 8 6 5 5 9 7 3 2 1 2 2 2 4 4 3 3 1 1 2 3 4 2 2 3 4 2 2 4 8 7 4 4 6 4 5 10 2 6 6 2 3 7
13 17 19 16 13 11 8 6 5 5 8 4 4 0 2 2 3 6 6 4 2 3 2 4 2 2 2 4 4 2 3 3 3 4 7 9 10 6 4 4 7 9 8 7 2 1 4
14 13 14 17 17 15 13 9 6 4 5 5 2 0 1 2 3 2 3 3 4 3 4 5 2 3 4 4 3 1 3 2 1 4 2 5 6 4 11 7 2 14 1 3 2 4 8
Wind_Direction
37 353 4 1 357 2 1 0 356 357 353 353 357 352 346 344 343 342 341 339 335 329 312 309 322 330 218 125 103 21 4 10 46 48 49 59 79 137 135 161 201 242 311 270 265 288 290
241 277 299 314 318 331 340 342 346 348 351 347 348 347 342 339 338 337 335 331 321 307 289 289 299 149 225 236 104 18 3 22 50 64 62 42 91 161 114 146 249 234 294 291 293 282 282
258 262 275 278 292 299 305 320 330 341 342 346 342 342 339 337 336 335 333 328 315 278 239 271 312 202 190 113 108 49 60 56 34 54 94 55 72 239 146 138 115 302 293 301 260 188 261
259 267 269 274 273 275 288 300 315 325 328 330 333 334 333 333 334 332 331 334 326 164 175 221 2 185 148 111 148 37 68 86 66 59 73 74 61 77 348 89 131 275 243 336 80 275 271
263 265 261 262 263 269 273 281 289 302 310 314 320 325 331 333 332 330 330 332 19 124 130 76 190 235 170 143 169 94 22 174 95 73 64 76 38 16 232 342 173 65 320 321 329 193 285
12 342 294 256 246 249 252 263 278 288 295 304 311 321 330 333 335 336 334 300 46 109 80 106 88 178 177 192 132 105 74 92 129 141 192 193 212 241 237 2 343 318 319 311 307 330 266
39 20 355 311 259 245 256 253 262 276 283 293 309 320 329 335 338 348 356 131 208 193 120 258 109 70 129 98 190 58 28 151 159 198 234 62 247 255 263 119 292 286 291 300 303 336 280
27 15 19 16 349 268 263 264 258 271 277 282 301 319 329 334 337 4 25 55 57 329 294 213 141 79 92 174 155 65 173 199 212 232 187 214 241 116 148 235 274 294 303 307 313 271 292
34 27 25 30 40 40 36 4 301 281 276 276 288 311 328 332 348 47 71 62 316 175 260 204 220 168 174 176 177 103 177 143 225 217 214 255 78 129 294 303 303 299 285 311 305 323 275
36 28 24 24 29 24 21 12 7 1 296 277 275 296 339 334 203 308 64 38 186 242 292 167 202 119 104 133 201 45 33 255 177 271 211 260 108 203 265 275 353 308 98 317 320 319 317
354 50 34 29 27 19 9 2 355 343 351 285 249 250 25 37 343 1 28 94 142 246 304 102 137 75 83 223 97 150 44 157 227 187 174 74 191 216 268 140 214 261 322 308 292 258 311
20 15 29 25 29 22 8 356 348 341 340 345 246 199 164 114 95 37 15 127 165 320 249 122 126 175 220 126 135 315 128 59 26 198 214 280 219 248 300 284 232 306 310 277 196 251 245
27 34 27 17 10 354 349 358 347 340 330 338 284 130 53 22 88 347 234 46 13 233 77 11 290 243 264 207 203 282 116 178 247 259 215 189 174 131 316 271 161 17 333 324 261 244 312
21 21 24 18 8 4 2 358 349 331 326 325 132 111 63 37 349 334 302 62 232 94 240 87 143 189 256 61 209 194 206 220 189 207 129 300 238 198 7 29 30 58 4 30 299 317 318
20 24 23 20 9 7 357 349 346 329 309 311 122 78 70 5 353 346 98 158 241 222 339 313 224 180 241 206 260 236 222 233 153 187 230 200 235 118 57 126 281 115 67 78 265 191 269
356 18 13 10 5 357 358 352 349 326 304 151 96 86 48 327 343 51 90 232 225 72 46 58 264 238 280 180 207 224 192 143 158 149 164 116 273 152 130 168 60 32 136 195 160 307 295
353 357 1 352 354 356 346 349 348 19 30 2 83 80 339 333 312 74 231 228 326 73 201 200 250 229 256 273 210 240 221 136 169 136 104 143 260 127 172 201 157 158 160 135 247 246 297
358 349 354 342 342 350 350 339 346 345 349 39 81 68 334 321 81 77 237 290 44 346 292 268 252 144 259 280 255 243 242 255 150 155 154 162 263 259 71 7 326 19 168 164 212 152 238
347 3 4 356 350 352 340 335 338 336 326 323 90 105 321 360 244 228 135 230 220 183 224 250 215 216 161 223 239 228 236 71 151 174 164 162 198 285 189 186 175 226 176 153 105 110 224
331 350 341 343 353 5 344 334 343 331 313 143 146 126 43 61 91 268 228 219 233 200 251 173 203 154 242 226 212 295 244 142 176 168 136 151 260 255 259 321 42 202 187 186 185 213 165
298 327 329 339 352 350 346 345 348 347 101 91 9 232 206 155 225 214 195 304 210 247 228 216 233 219 206 237 223 230 206 154 174 171 110 187 256 231 272 284 251 265 206 192 201 190 236
298 287 311 333 351 352 341 352 349 354 359 87 146 164 72 109 131 173 197 222 227 211 180 220 234 161 215 235 239 346 175 206 193 175 190 138 255 276 267 132 223 269 227 214 228 233 264
271 300 310 313 320 340 343 354 353 357 359 74 109 35 51 151 159 177 221 243 280 142 197 244 226 176 198 249 296 281 188 360 205 172 189 173 199 268 268 279 275 273 216 187 179 199 189
240 259 286 287 301 331 339 347 356 1 12 330 144 115 131 241 198 205 211 210 255 218 277 232 200 237 86 195 162 86 58 65 79 84 135 152 160 212 288 297 269 337 148 211 231 218 210
218 230 258 277 283 290 325 340 350 353 3 328 313 238 184 262 245 253 243 238 313 287 238 235 200 60 151 168 237 285 111 308 21 19 161 228 151 229 283 277 304 179 197 183 186 279 195
237 226 220 231 255 278 297 328 339 346 345 333 260 228 266 302 249 139 150 178 242 225 249 204 89 144 212 257 211 249 250 49 182 132 151 119 88 271 181 256 253 243 187 196 211 275 189
243 238 229 232 236 241 269 294 318 339 333 346 287 195 274 244 220 149 216 206 152 183 272 151 163 181 292 180 216 217 252 74 231 178 170 161 192 213 207 262 279 151 148 166 226 248 178
275 244 242 228 234 240 239 252 285 321 324 350 290 253 274 261 245 193 185 157 143 189 213 134 153 175 160 207 216 243 220 182 237 159 181 175 163 188 178 225 278 148 119 196 208 68 185
280 285 262 233 233 234 239 235 235 278 319 325 272 353 359 234 259 289 241 238 228 190 149 183 308 158 179 187 211 281 245 185 269 262 205 236 206 190 209 220 46 197 222 211 197 148 195